Paris, IL

12:01 AM CDT on September 25, 2017 (GMT -0500)
Edgar County

Weather History for KPRG - February, 2013

Change the Weather History Date:

Thursday, February 7, 2013

  Actual Average (KHUF) Record (KHUF)
Temperature  
Mean Temperature 44 °F -  
Max Temperature 57 °F 34 °F 63 °F (2017)
Min Temperature 30 °F 16 °F -14 °F (2014)
Degree Days  
Heating Degree Days 22    
Moisture  
Dew Point 35 °F    
Average Humidity 82    
Maximum Humidity 96    
Minimum Humidity 55    
Precipitation  
Precipitation 0.02 in - - ()
Sea Level Pressure  
Sea Level Pressure 29.97 in    
Wind  
Wind Speed 8 mph (SSE)    
Max Wind Speed 15 mph    
Max Gust Speed 24 mph    
Visibility 5 miles    
Events Rain    
Averages and records for this station are not official NWS values.
T = Trace of Precipitation, MM = Missing Value Source: NWS Daily Summary

Daily Weather History Graph

Daily Weather History Graph

Search for Another Location

Airport or City:

Trip Planner

Search our weather history database for the weather conditions in past years. The results will help you decide how hot, cold, wet, or windy it might be!

Date:

Astronomy

Feb. 07, 2013 Rise Set
Actual Time 6:52 AM CST 5:17 PM CST
Civil Twilight 6:24 AM CST 5:46 PM CST
Nautical Twilight 5:52 AM CST 6:17 PM CST
Astronomical Twilight 5:20 AM CST 6:49 PM CST
Moon 4:31 AM CST (2/7) 2:42 PM CST (2/7)
Length of Visible Light 11h 21m
Length of Day
10h 25m
Waning Crescent, 9% of the Moon is Illuminated
Feb 7
Waning Crescent
Feb 10
New
Feb 17
First Quarter
Feb 25
Full
Mar 4
Last Quarter

Hourly Weather History & Observations

Time (CST) Temp. Windchill Dew Point Humidity Pressure Visibility Wind Dir Wind Speed Gust Speed Precip Events Conditions
12:15 AM 31.1 °F 24.5 °F 28.2 °F 89% 30.14 in - SE 6.9 mph - N/A   Unknown
12:35 AM 31.1 °F 24.5 °F 28.4 °F 90% 30.13 in - SE 6.9 mph - N/A   Unknown
12:55 AM 31.1 °F 26.4 °F 28.2 °F 89% 30.12 in - SE 4.6 mph - N/A   Unknown
1:15 AM 30.9 °F 25.2 °F 28.2 °F 90% 30.12 in - SE 5.8 mph - N/A   Unknown
1:35 AM 30.9 °F 24.3 °F 28.2 °F 90% 30.12 in - SE 6.9 mph - N/A   Unknown
1:55 AM 31.1 °F 23.1 °F 28.2 °F 89% 30.11 in - SE 9.2 mph - N/A   Unknown
2:15 AM 31.1 °F 24.5 °F 28.0 °F 88% 30.11 in - SE 6.9 mph - N/A   Unknown
2:35 AM 30.9 °F 25.2 °F 28.2 °F 90% 30.10 in - SE 5.8 mph - N/A   Unknown
2:55 AM 31.1 °F 23.7 °F 28.4 °F 90% 30.10 in 4.0 mi SE 8.1 mph - N/A   Clear
3:15 AM 31.1 °F 23.7 °F 28.6 °F 90% 30.09 in - SE 8.1 mph - N/A   Unknown
3:35 AM 31.6 °F 25.1 °F 28.9 °F 90% 30.09 in - ESE 6.9 mph - N/A   Unknown
3:55 AM 32.0 °F 25.6 °F 28.9 °F 88% 30.09 in - SE 6.9 mph - N/A   Unknown
4:15 AM 32.0 °F 24.8 °F 29.1 °F 89% 30.09 in - SE 8.1 mph - N/A   Unknown
4:35 AM 32.0 °F 27.5 °F 28.9 °F 88% 30.09 in - SE 4.6 mph - N/A   Unknown
4:55 AM 32.0 °F 25.6 °F 29.3 °F 90% 30.08 in - SE 6.9 mph - N/A   Unknown
5:15 AM 32.0 °F 24.8 °F 29.3 °F 90% 30.08 in - SE 8.1 mph - N/A   Unknown
5:35 AM 32.0 °F 25.6 °F 30.2 °F 93% 30.07 in - SE 6.9 mph - N/A   Unknown
5:55 AM 32.0 °F 24.8 °F 29.3 °F 90% 30.06 in - ESE 8.1 mph - N/A   Unknown
6:15 AM 32.0 °F 27.5 °F 29.3 °F 90% 30.06 in - ESE 4.6 mph - N/A   Unknown
6:35 AM 32.0 °F 26.4 °F 29.1 °F 89% 30.05 in - SE 5.8 mph - N/A   Unknown
6:55 AM 32.0 °F 28.7 °F 29.1 °F 89% 30.05 in - ESE 3.5 mph - N/A   Unknown
7:15 AM 32.0 °F 28.7 °F 29.1 °F 89% 30.05 in - ESE 3.5 mph - N/A   Unknown
7:35 AM 32.2 °F 28.9 °F 29.1 °F 88% 30.05 in - SE 3.5 mph - N/A   Unknown
7:55 AM 32.9 °F 29.8 °F 30.0 °F 89% 30.05 in - ESE 3.5 mph - N/A   Unknown
8:15 AM 34.0 °F - 30.7 °F 88% 30.05 in - Calm Calm - N/A   Unknown
8:35 AM 35.1 °F 30.1 °F 31.1 °F 85% 30.05 in - SE 5.8 mph - N/A   Unknown
8:55 AM 36.5 °F 31.0 °F 32.0 °F 84% 30.04 in - SE 6.9 mph - N/A   Clear
9:15 AM 37.6 °F 33.1 °F 32.0 °F 80% 30.03 in - SE 5.8 mph - N/A   Clear
9:35 AM 38.8 °F 33.2 °F 32.2 °F 77% 30.02 in - SE 8.1 mph - N/A   Clear
9:55 AM 40.1 °F 35.3 °F 32.9 °F 75% 30.02 in 4.0 mi SE 6.9 mph - N/A   Haze
10:15 AM 41.9 °F 40.0 °F 34.3 °F 75% 30.02 in - SE 3.5 mph - N/A   Clear
10:35 AM 43.7 °F 39.7 °F 34.9 °F 71% 30.02 in - ESE 6.9 mph - N/A   Clear
10:55 AM 44.4 °F 40.5 °F 34.7 °F 69% 30.00 in - ESE 6.9 mph - N/A   Clear
11:15 AM 45.9 °F 42.3 °F 34.7 °F 65% 29.99 in - ESE 6.9 mph - N/A   Clear
11:35 AM 47.8 °F - 36.1 °F 64% 29.98 in 5.0 mi ESE 8.1 mph - N/A   Haze
11:55 AM 49.6 °F - 37.0 °F 62% 29.96 in 5.0 mi ESE 8.1 mph - N/A   Haze
12:15 PM 50.9 °F - 37.9 °F 61% 29.94 in 5.0 mi ESE 8.1 mph - N/A   Haze
12:35 PM 52.7 °F - 39.4 °F 61% 29.93 in 4.0 mi SE 10.4 mph - N/A   Haze
12:55 PM 54.1 °F - 40.5 °F 60% 29.92 in 5.0 mi SSE 9.2 mph - N/A   Haze
1:15 PM 55.6 °F - 41.2 °F 58% 29.91 in 5.0 mi SSE 8.1 mph - N/A   Haze
1:35 PM 56.3 °F - 40.5 °F 55% 29.90 in 5.0 mi South 8.1 mph - N/A   Haze
1:55 PM 56.5 °F - 40.5 °F 55% 29.88 in 5.0 mi South 10.4 mph - N/A   Haze
2:15 PM 56.1 °F - 42.4 °F 60% 29.87 in 7.0 mi South 9.2 mph - N/A   Mostly Cloudy
2:35 PM 57.0 °F - 41.5 °F 56% 29.87 in 5.0 mi South 8.1 mph - N/A   Haze
2:55 PM 57.2 °F - 41.7 °F 56% 29.87 in 5.0 mi South 10.4 mph - N/A   Haze
3:15 PM 56.7 °F - 43.5 °F 61% 29.86 in 5.0 mi South 9.2 mph - N/A   Haze
3:35 PM 55.6 °F - 43.0 °F 63% 29.85 in 5.0 mi South 9.2 mph - N/A   Haze
3:55 PM 53.6 °F - 43.0 °F 67% 29.84 in 5.0 mi South 9.2 mph - N/A   Haze
4:15 PM 52.5 °F - 43.7 °F 72% 29.83 in 5.0 mi South 6.9 mph - N/A   Haze
4:35 PM 50.2 °F - 42.4 °F 75% 29.83 in 5.0 mi South 6.9 mph - N/A   Haze
4:55 PM 48.9 °F - 42.3 °F 78% 29.83 in 5.0 mi Calm Calm - N/A   Haze
5:15 PM 50.4 °F - 42.4 °F 74% 29.85 in 5.0 mi West 11.5 mph - N/A   Haze
5:35 PM 47.8 °F - 44.2 °F 87% 29.86 in 5.0 mi West 12.7 mph 18.4 mph N/A Rain Rain
5:55 PM 46.4 °F 41.9 °F 44.6 °F 93% 29.86 in 4.0 mi West 9.2 mph - N/A Rain Light Rain
6:15 PM 45.7 °F 41.5 °F 43.9 °F 93% 29.86 in 3.0 mi West 8.1 mph - N/A   Overcast
6:35 PM 45.1 °F 40.8 °F 43.7 °F 95% 29.86 in 3.0 mi West 8.1 mph - N/A Rain Light Rain
6:55 PM 44.6 °F 39.7 °F 43.2 °F 95% 29.86 in - West 9.2 mph - N/A   Unknown
7:15 PM 44.2 °F 39.7 °F 43.0 °F 95% 29.86 in - West 8.1 mph - N/A   Unknown
7:35 PM 43.9 °F 37.9 °F 42.8 °F 96% 29.86 in - West 11.5 mph - 0.01 in   Unknown
7:55 PM 43.2 °F 36.6 °F 42.1 °F 96% 29.87 in - WNW 12.7 mph 19.6 mph 0.02 in   Overcast
8:15 PM 42.3 °F 35.5 °F 41.0 °F 95% 29.87 in 3.0 mi WNW 12.7 mph - N/A   Drizzle
8:35 PM 41.4 °F 34.0 °F 40.3 °F 96% 29.87 in - WNW 13.8 mph 17.3 mph N/A   Overcast
8:55 PM 40.6 °F 33.4 °F 39.4 °F 95% 29.87 in 4.0 mi WNW 12.7 mph 18.4 mph N/A   Drizzle
9:15 PM 40.1 °F 32.7 °F 38.7 °F 95% 29.88 in 4.0 mi WNW 12.7 mph - N/A   Drizzle
9:35 PM 39.4 °F 31.4 °F 38.1 °F 95% 29.88 in 4.0 mi WNW 13.8 mph 17.3 mph N/A   Light Drizzle
9:55 PM 38.7 °F 30.9 °F 37.4 °F 95% 29.89 in 4.0 mi WNW 12.7 mph - N/A   Overcast
10:15 PM 38.3 °F 30.5 °F 36.9 °F 95% 29.90 in 5.0 mi WNW 12.7 mph - N/A   Overcast
10:35 PM 37.6 °F 28.8 °F 36.1 °F 95% 29.91 in 5.0 mi NW 15.0 mph 24.2 mph N/A   Overcast
10:55 PM 36.9 °F 28.7 °F 35.4 °F 95% 29.92 in 5.0 mi NW 12.7 mph 20.7 mph N/A   Overcast
11:15 PM 36.5 °F 27.4 °F 34.9 °F 94% 29.92 in 5.0 mi WNW 15.0 mph 19.6 mph N/A   Overcast
11:35 PM 36.3 °F 27.5 °F 34.5 °F 93% 29.93 in 7.0 mi NW 13.8 mph 20.7 mph N/A   Overcast
11:55 PM 35.6 °F 26.2 °F 33.6 °F 92% 29.94 in 10.0 mi NW 15.0 mph - N/A   Overcast